Regional Weather Roundup
Issued by NWS

Home | Current Version | Previous Version | Text Only | Print | Product List | Glossary Off
Versions: 1 2 3 4 5 6 7 8 9 10 11 12 13 14 15 16 17 18 19 20 21 22 23 24 25 26 27 28 29 30 31 32 33 34 35 36 37 38 39 40 41 42 43 44 45 46 47 48 49 50

000
ASUS43 KMKX 242321
RWRWI

WISCONSIN REGIONAL WEATHER ROUNDUP
NATIONAL WEATHER SERVICE MILWAUKEE/SULLIVAN WI
500 PM CST FRI FEB 24 2017

NOTE: "FAIR" INDICATES FEW OR NO CLOUDS BELOW 12,000 FEET WITH NO
SIGNIFICANT WEATHER AND/OR OBSTRUCTIONS TO VISIBILITY.

WIZ001-002-006>008-014>016-023>028-250000-
NORTHWEST WISCONSIN

CITY           SKY/WX    TMP DP  RH WIND       PRES   REMARKS
SUPERIOR ARPT  CLOUDY    24  11  58 N12G18    29.90S WCI  12
ASHLAND        CLOUDY    18  10  71 N15       29.87F WCI   4
HAYWARD        FLURRIES  19  10  68 N14G23    29.82R WCI   6
SIREN          CLOUDY    22  10  57 NE15G24   29.85R WCI   9
CUMBERLAND     CLOUDY    21  10  63 N16G26    29.79R WCI   7
RICE LAKE      LGT SNOW  21  15  76 N7G22     29.81R WCI  12
CHETEK         LGT SNOW  21  15  79 N10G16    29.79R WCI  10
LADYSMITH      LGT SNOW  22  16  79 N15G22    29.76R WCI   8
EAU CLAIRE     LGT SNOW  22  17  81 N16G23    29.75R WCI   8
MENOMONIE      LGT SNOW  24  19  83 N17       29.77S WCI  10
NEW RICHMOND   CLOUDY    24  13  63 N20G26    29.81S WCI   9
OSCEOLA        CLOUDY    25  13  60 N16G24    29.86R WCI  12
$$

WIZ003>005-009-010-017-018-250000-
NORTH CENTRAL WISCONSIN

CITY           SKY/WX    TMP DP  RH WIND       PRES   REMARKS
MANITOWISH WTR LGT SNOW  17  15  89 N15G21    29.70S WCI   3
ARBOR VITAE    LGT SNOW  19  13  78 N12G22      N/A  WCI   7
WOODRUFF       LGT SNOW  19  13  78 N12G22      N/A  WCI   7
RHINELANDER    LGT SNOW  20  15  81 N10G18    29.66S WCI   9
EAGLE RIVER    LGT SNOW  18  11  76 N17G26    29.67S WCI   2
LAND O LAKES   LGT SNOW  18  14  84 N15G21    29.70S WCI   4
PHILLIPS       LGT SNOW  19  16  88 N14       29.70R WCI   5
TOMAHAWK       LGT SNOW  20  15  82 N7        29.67F WCI  11
MEDFORD        LGT SNOW  21  15  78 N20G25    29.65S WCI   6
MERRILL        NOT AVBL
$$

WIZ029-030-035-036-043>047-250000-
CENTRAL WISCONSIN

CITY           SKY/WX    TMP DP  RH WIND       PRES   REMARKS
WAUSAU         CLOUDY    23  17  78 N10G26    29.63S WCI  12
MOSINEE        CLOUDY    25  19  80 N14G23    29.63F WCI  13
MARSHFIELD     FLURRIES  24  17  74 N14       29.63R WCI  12
STEVENS POINT  LGT SNOW  23  21  93 N10       29.63R WCI  12
WAUPACA        CLOUDY    28  25  88 N7        29.62R FOG     WCI  21
WAUTOMA        CLOUDY    26  24  92 N12G18    29.61R FOG     WCI  16
WISC RAPIDS    LGT SNOW  26  22  84 N12       29.64R FOG     WCI  16
CAMP DOUGLAS   LGT SNOW  26  24  91 NW5       29.65R FOG     WCI  20
$$

WIZ011>013-019>022-031-037>040-048>050-250000-
NORTHEAST WISCONSIN

CITY           SKY/WX    TMP DP  RH WIND       PRES   REMARKS
ANTIGO         CLOUDY    20  18  89 N16       29.62S FOG     WCI   6
SHAWANO        MIX PCPN  28  25  89 N12       29.62S WCI  18
OCONTO         CLOUDY    25  23  91 N13G22    29.60F WCI  14
STURGEON BAY   MIX PCPN  27  25  92 MISG      29.57F FOG
GREEN BAY      CLOUDY    27  26  96 N17       29.58S FOG     WCI  14
MANITOWOC      MIX PCPN  30  28  92 N13       29.52F FOG     WCI  20
APPLETON       CLOUDY    27  25  93 N20G26    29.56S WCI  13
CLINTONVILLE   MIX PCPN  27  25  93 N10G18    29.61S WCI  17
OSHKOSH        CLOUDY    27  24  89 N20       29.57R FOG     WCI  13
$$

WIZ032>034-041-042-053>061-250000-
SOUTHWEST WISCONSIN

CITY           SKY/WX    TMP DP  RH WIND       PRES   REMARKS
LA CROSSE      LGT SNOW  28  23  81 N15       29.69S WCI  16
SPARTA         CLOUDY    26  24  89 N10G16    29.68R FOG     WCI  17
VIROQUA        CLOUDY    26  25  95 N13       29.63S WCI  15
BOSCOBEL       CLOUDY    30  25  81 N7G18     29.64S WCI  23
PRAIRIE DU CHI CLOUDY    29  26  87 N8        29.65R WCI  21
PLATTEVILLE    CLOUDY    30  30 100 N8        29.60R WCI  22
$$

WIZ056-057-062-063-064-067-068-250000-
SOUTH CENTRAL WISCONSIN

CITY           SKY/WX    TMP DP  RH WIND       PRES   REMARKS
REEDSBURG      CLOUDY    26  26  99 N8        29.61S FOG     WCI  18
BARABOO/DELLS  CLOUDY    27  25  94 N5        29.60S FOG     WCI  21
LONE ROCK      CLOUDY    29  25  85 N9        29.62F FOG     WCI  20
MINERAL POINT  CLOUDY    30  30 100 N3        29.57F FOG
MADISON        FRZ DRZL  28  26  92 N14       29.58R FOG     WCI  17
MIDDLETON      CLOUDY    30  30 100 N7        29.58R WCI  23
WATERTOWN      CLOUDY    29  29 100 N12G17    29.54R FOG     WCI  19
MONROE         CLOUDY    30  30 100 N17       29.57R FOG     WCI  18
JANESVILLE     CLOUDY    30  30 100 N10G16    29.55R WCI  21
$$

WIZ051-052-058>065-066-070>072-250000-
SOUTHEAST WISCONSIN

CITY           SKY/WX    TMP DP  RH WIND       PRES   REMARKS
MILWAUKEE      DRIZZLE   35  33  92 N14       29.50R FOG     WCI  26
WAUKESHA       CLOUDY    30  30 100 N13       29.52R FOG     WCI  20
MILWAUKEE/TIMM LGT RAIN  34  30  86 N12G17    29.51R WCI  25
RACINE         CLOUDY    35  33  92 N14       29.52R FOG     WCI  26
KENOSHA        CLOUDY    35  33  92 N10       29.51R FOG     WCI  27
FOND DU LAC    FRZ RAIN  28  24  85 N18G25    29.56R FOG     WCI  15
SHEBOYGAN      CLOUDY    30  27  88 N13G22    29.50F FOG     WCI  20
WEST BEND      MIX PCPN  30  30 100 N3        29.51F
JUNEAU         CLOUDY    28  26  94 N8        29.56R FOG     WCI  19
$$

LSZ147-162-250000-
LAKE SUPERIOR

STATION/POSITION TIME  TEMP    WIND        PRES    WAVE
                       AIR SEA DIR/SP/G            HT/PER
                 (UTC) (F)     (DEG/KT/KT) (MB)    (FT/S)
DEVILS ISLAND    2300   20      10/ 14/ 17 1013.3F
PORT WING        2230   22      20/ 13/ 17 1012.5S
SAXON HARBOR     2305   22      10/ 22/ 26 1011.2R
$$

LMZ867-665-643>646-250000-
LAKE MICHIGAN

STATION/POSITION TIME  TEMP    WIND        PRES    WAVE
                       AIR SEA DIR/SP/G            HT/PER
                 (UTC) (F)     (DEG/KT/KT) (MB)    (FT/S)
NORTHPORT PIER   2240   28      10/  3/  4 1003.0S
SISTER BAY       2235   27        CALM       N/A
KEWAUNEE LAKESHO 2254   29      10/ 13/ 18 1000.3F
SHEBOYGAN LAKESH 2300   31     350/ 15/ 17  999.5F
PORT WASHINGTON  2230   33     340/  7/ 17 1000.3S
MILWAUKEE LAKESH 2300   34     330/ 15/ 19   N/A
KENOSHA   LAKESH 2300   35     330/ 13/ 15  999.7
$$

TC  - TEMPERATURE IN CELSIUS
VSB - VISIBILITY IN STATUTE MILES
WCI - WIND CHILL INDEX
HX  - HEAT INDEX




USA.gov is the U.S. government's official web portal to all federal, state and local government web resources and services.